[[{"header":{"parameterUnit":"m.s-1","parameterCategory":1,"la1":30.2991,"la2":30.254,"lo1":-89.0895,"lo2":-89.0444,"dy":0.0017,"dx":0.0017,"nx":28,"ny":28,"refTime":"2025-01-10T09:00:00:Z","depth":0,"parameterNumber":2,"parameterNumberName":"U-component_of_WINDS"},"data":[0,0,0,0,0,0,0,0,0,0,0,0,0,0,0,0,0,0,0,0,0,0,0,0,0,0,0,0,0,0,0,0,0,0,0,0,0,0,0,0,0,0,0,0,0,0,0,0,0,0,0,0,0,0,0,0,0,0,-5.6789,-5.6788,0,-5.668,-5.6678,-5.6677,-5.6447,-5.6443,-5.6438,-5.6434,-5.6327,-5.6329,-5.633,0,0,0,0,0,0,0,0,0,0,0,0,0,-5.6804,-5.6805,-5.6789,-5.6787,-5.6786,-5.668,-5.6678,-5.6677,-5.6448,-5.6442,-5.6437,-5.6432,-5.6327,-5.6329,-5.6331,0,0,0,0,0,0,0,0,0,0,0,0,0,-5.6757,-5.6805,-5.6789,-5.6659,-5.6646,-5.668,-5.6678,-5.6676,-5.6449,-5.6442,-5.6435,-5.6429,-5.6326,-5.6329,-5.6331,-5.6484,0,0,-5.6338,-5.6339,0,0,0,0,0,0,0,0,-5.676,-5.6756,-5.6679,-5.6668,-5.6654,-5.657,-5.6644,-5.6612,-5.6451,-5.6524,-5.6434,-5.6425,-5.6414,-5.6409,-5.6404,-5.6479,-5.6475,-5.6338,-5.6339,-5.634,-5.6341,0,0,0,0,0,0,0,-5.6763,-5.676,-5.6746,-5.6679,-5.6663,-5.6608,-5.6593,-5.6637,-5.651,-5.6517,-5.65,-5.649,-5.6406,-5.6402,-5.64,-5.6473,-5.6338,-5.634,-5.6341,-5.6342,-5.6666,-5.6673,0,0,0,0,0,0,-5.6785,-5.6764,-5.6749,-5.6742,-5.669,-5.6613,-5.6597,-5.6604,-5.6509,-5.6487,-5.6496,-5.648,-5.6402,-5.6397,-5.6395,-5.6565,-5.634,-5.6342,-5.6344,-5.6659,-5.6668,-5.6676,0,0,0,0,0,0,-5.6786,-5.6785,-5.6753,-5.6748,-5.674,-5.662,-5.663,-5.6605,-5.6601,-5.6493,-5.6469,-5.6516,-5.6396,-5.6392,-5.6463,-5.6559,-5.6343,-5.6345,-5.6651,-5.6662,-5.6672,-5.691,0,0,0,0,0,0,-5.6787,-5.6787,-5.6843,-5.6751,-5.6741,-5.6823,-5.6636,-5.6608,-5.6605,-5.6583,-5.6505,-5.6485,-5.639,-5.6461,-5.6465,-5.6558,-5.6347,-5.6641,-5.6656,-5.6669,-5.6893,-5.6928,-5.6958,0,0,0,0,0,-5.6789,-5.6916,-5.6847,-5.6847,-5.6808,-5.6828,-5.6823,-5.6709,-5.6614,-5.6669,-5.66,-5.6487,-5.6548,-5.647,-5.6473,-5.6568,-5.6635,-5.6652,-5.6667,-5.6879,-5.6921,-5.6957,0,0,0,0,0,0,-5.7024,-5.6902,-5.6824,-5.6925,-5.6889,-5.679,-5.6856,-5.6758,-5.675,-5.6729,-5.6591,-5.6575,-5.6665,-5.6623,-5.6538,-5.671,-5.6573,-5.6591,-5.6733,-5.6772,-5.6804,-5.6811,-5.6349,0,0,0,0,0,-5.7088,-5.7113,-5.7005,-5.7105,-5.7091,-5.6978,-5.6982,-5.6898,-5.6855,-5.6839,-5.6774,-5.6739,-5.6749,-5.6759,-5.6763,-5.6887,-5.6866,-5.6954,-5.6986,-5.7013,-5.703,-5.709,-5.7127,-5.673,-5.6729,-5.6729,0,0,-5.722,-5.7156,-5.718,-5.7151,-5.7112,-5.7142,-5.6966,-5.7005,-5.7026,-5.6845,-5.6906,-5.6859,-5.681,-5.6908,-5.6948,-5.6876,-5.7135,-5.7034,-5.7057,-5.7058,-5.7111,-5.7149,-5.7182,-5.6741,-5.6739,-5.6737,0,0,-5.7474,-5.743,-5.7506,-5.7471,-5.7415,-5.7339,-5.7358,-5.7273,-5.7233,-5.7293,-5.7157,-5.7182,-5.7204,-5.7173,-5.7161,-5.7405,-5.7301,-5.7411,-5.7578,-5.7639,-5.767,-5.7697,-5.7782,-5.7814,-5.7428,-5.7428,-5.7429,0,-5.7645,-5.7683,-5.7559,-5.7606,-5.7597,-5.7433,-5.751,-5.7483,-5.7433,-5.7431,-5.7352,-5.7374,-5.733,-5.7417,-5.7476,-5.7473,-5.749,-5.7417,-5.7675,-5.7701,-5.7725,-5.7804,-5.7836,-5.7442,-5.744,-5.7439,-5.7438,0,-5.7895,-5.7924,-5.7993,-5.7945,-5.7944,-5.8007,-5.7893,-5.7908,-5.7825,-5.7757,-5.782,-5.7761,-5.7749,-5.7765,-5.7685,-5.7841,-5.7798,-5.77,-5.7559,-5.7778,-5.785,-5.7879,-5.7461,-5.7456,-5.7452,-5.7449,0,0,-5.8293,-5.8175,-5.8203,-5.8178,-5.8104,-5.8125,-5.8181,-5.8167,-5.8181,-5.8153,-5.8195,-5.8217,-5.8125,-5.8112,-5.8027,-5.8081,-5.8275,-5.7975,-5.7972,-5.8031,-5.8441,-5.8513,-5.8551,-5.8207,-5.8212,-5.8217,-5.8444,0,-5.8528,-5.8613,-5.8504,-5.8614,-5.8638,-5.8484,-5.8532,-5.8493,-5.8432,-5.8445,-5.8378,-5.8395,-5.8273,-5.8264,-5.831,-5.8242,-5.8355,-5.8224,-5.8245,-5.8247,-5.8258,-5.8588,-5.8665,-5.8882,-5.8472,-5.8477,-5.848,0,-5.8813,-5.8795,-5.8907,-5.8825,-5.8831,-5.8876,-5.8854,-5.8869,-5.8822,-5.8773,-5.8759,-5.8657,-5.8707,-5.8573,-5.8638,-5.8552,-5.8554,-5.8522,-5.8528,-5.8523,-5.8375,-5.859,-5.8949,-5.8981,-5.8524,-5.852,-5.8517,0,-5.9088,-5.9093,-5.9159,-5.9144,-5.9051,-5.9086,-5.9049,-5.8995,-5.8994,-5.8976,-5.8973,-5.8963,-5.8957,-5.8952,-5.885,-5.8763,-5.8929,-5.8786,-5.8889,-5.8892,-5.8929,-5.8927,-5.9291,-5.8937,-5.8936,-5.8935,-5.8935,0,-5.9361,-5.9435,-5.9281,-5.9323,-5.9401,-5.9276,-5.9357,-5.9305,-5.9258,-5.9287,-5.9155,-5.9185,-5.905,-5.9067,-5.8989,-5.9054,-5.9053,-5.9015,-5.8993,-5.9025,-5.903,-5.9023,-5.9004,-5.8944,-5.8942,-5.894,-5.8939,0,-5.968,-5.9581,-5.9642,-5.9549,-5.9527,-5.9589,-5.9509,-5.9544,-5.9475,-5.9513,-5.9515,-5.9407,-5.9419,-5.9318,-5.9312,-5.9259,-5.9361,-5.9314,-5.9376,-5.936,-5.9467,-5.9458,-5.9837,-5.9879,-5.9502,-5.9505,-5.9508,0,-5.9858,-5.9911,-5.9823,-5.9831,-5.98,-5.9817,-5.9814,-5.9694,-5.9697,-5.9647,-5.9688,-5.9689,-5.9682,-5.9709,-5.9631,-5.9625,-5.9575,-5.9709,-5.9574,-5.9604,-5.9574,-5.9571,-5.9574,-5.9736,-5.9741,-5.9745,-5.9748,0,-6.0185,-6.0133,-6.0133,-6.0117,-6.0117,-6.0099,-6.0072,-6.0087,-5.9956,-5.9967,-5.9976,-5.9972,-5.9964,-5.9966,-5.9945,-5.9908,-5.9807,-5.9792,-5.9814,-5.9846,-5.9879,-5.986,-5.945,-5.9783,-5.9779,-5.9777,-5.9775,-5.9773,-6.0436,-6.0475,-6.0419,-6.0423,-6.039,-6.0368,-6.0395,-6.0329,-6.0334,-6.0317,-6.0247,-6.0269,-6.022,-6.0181,-6.0154,-6.017,-6.0105,-6.014,-6.0148,-6.0157,-6.0175,-5.9879,-6.0166,-6.0165,-6.0164,-6.0163,-6.0162,0,-6.0753,-6.0709,-6.0715,-6.068,-6.0684,-6.0588,-6.0553,-6.0563,-6.0583,-6.0546,-6.0542,-6.0553,-6.0555,-6.0478,-6.0469,-6.0497,-6.045,-6.0499,-6.0494,-6.0487,-6.0235,-6.0214,-6.0536,-6.0536,-6.0536,-6.0536,-6.0536,-6.0536,-6.0918,-6.0978,-6.092,-6.0962,-6.0918,-6.0937,-6.0925,-6.0904,-6.0873,-6.0891,-6.0891,-6.084,-6.0786,-6.0773,-6.077,-6.0747,-6.0749,-6.0814,-6.0775,-6.0541,-6.0505,-6.047,-6.0449,-6.0816,-6.0816,-6.1024,-6.1026,-6.1028]},{"header":{"parameterUnit":"m.s-1","parameterCategory":1,"la1":30.2991,"la2":30.254,"lo1":-89.0895,"lo2":-89.0444,"dy":0.0017,"dx":0.0017,"nx":28,"ny":28,"refTime":"2025-01-10T09:00:00:Z","depth":0,"parameterNumber":3,"parameterNumberName":"V-component_of_WINDS"},"data":[0,0,0,0,0,0,0,0,0,0,0,0,0,0,0,0,0,0,0,0,0,0,0,0,0,0,0,0,0,0,0,0,0,0,0,0,0,0,0,0,0,0,0,0,0,0,0,0,0,0,0,0,0,0,0,0,0,0,-0.1517,-0.1517,0,-0.1559,-0.156,-0.156,-0.1599,-0.1599,-0.16,-0.16,-0.1646,-0.1646,-0.1647,0,0,0,0,0,0,0,0,0,0,0,0,0,-0.1469,-0.147,-0.1517,-0.1517,-0.1518,-0.1559,-0.156,-0.1561,-0.1599,-0.1599,-0.16,-0.16,-0.1645,-0.1646,-0.1647,0,0,0,0,0,0,0,0,0,0,0,0,0,-0.1498,-0.147,-0.1517,-0.1542,-0.1544,-0.1559,-0.156,-0.1561,-0.1598,-0.1599,-0.16,-0.16,-0.1645,-0.1646,-0.1647,-0.1641,0,0,-0.1651,-0.1651,0,0,0,0,0,0,0,0,-0.1497,-0.15,-0.1538,-0.154,-0.1543,-0.1574,-0.156,-0.1588,-0.1598,-0.1578,-0.16,-0.1601,-0.1621,-0.1625,-0.1631,-0.1643,-0.1645,-0.1651,-0.1652,-0.1652,-0.1653,0,0,0,0,0,0,0,-0.1495,-0.1499,-0.1534,-0.1538,-0.1541,-0.1551,-0.1556,-0.1565,-0.1596,-0.158,-0.1583,-0.1587,-0.1623,-0.163,-0.1633,-0.1646,-0.1651,-0.1652,-0.1653,-0.1653,-0.1653,-0.1652,0,0,0,0,0,0,-0.1489,-0.1497,-0.1532,-0.1535,-0.1521,-0.1551,-0.1557,-0.1564,-0.1596,-0.1601,-0.1587,-0.1589,-0.1628,-0.1631,-0.1634,-0.1628,-0.1652,-0.1653,-0.1654,-0.1654,-0.1653,-0.1652,0,0,0,0,0,0,-0.1487,-0.1491,-0.1531,-0.1517,-0.1522,-0.1551,-0.1559,-0.1564,-0.1571,-0.1601,-0.1606,-0.1588,-0.1628,-0.1633,-0.1639,-0.163,-0.1654,-0.1655,-0.1655,-0.1654,-0.1653,-0.1616,0,0,0,0,0,0,-0.1486,-0.1491,-0.1489,-0.1516,-0.1523,-0.1534,-0.1558,-0.1565,-0.1573,-0.1576,-0.1603,-0.1609,-0.1629,-0.1637,-0.164,-0.1632,-0.1656,-0.1656,-0.1654,-0.1653,-0.1618,-0.1613,-0.161,0,0,0,0,0,-0.1484,-0.1478,-0.1488,-0.1493,-0.1521,-0.1533,-0.1537,-0.1561,-0.1572,-0.157,-0.1589,-0.1608,-0.163,-0.1637,-0.1641,-0.1633,-0.1656,-0.1655,-0.1653,-0.162,-0.1614,-0.161,0,0,0,0,0,0,-0.145,-0.1482,-0.1494,-0.1496,-0.1512,-0.154,-0.1538,-0.1555,-0.1568,-0.157,-0.1599,-0.1605,-0.1607,-0.1621,-0.1628,-0.1628,-0.1646,-0.1645,-0.1619,-0.1614,-0.161,-0.1607,-0.1657,0,0,0,0,0,-0.1442,-0.1449,-0.1477,-0.1476,-0.1483,-0.1509,-0.1516,-0.1532,-0.1549,-0.1556,-0.1576,-0.1592,-0.1603,-0.1609,-0.1621,-0.162,-0.1626,-0.1617,-0.1613,-0.1609,-0.1608,-0.1607,-0.1602,-0.1647,-0.1647,-0.1647,0,0,-0.1427,-0.1445,-0.1448,-0.147,-0.1484,-0.149,-0.1515,-0.1521,-0.1526,-0.1558,-0.1564,-0.1578,-0.1599,-0.16,-0.1602,-0.1612,-0.1597,-0.1607,-0.1604,-0.1605,-0.1604,-0.16,-0.1596,-0.1646,-0.1646,-0.1646,0,0,-0.1402,-0.1417,-0.1418,-0.143,-0.1451,-0.1468,-0.1467,-0.1493,-0.1503,-0.151,-0.1533,-0.1539,-0.1558,-0.1571,-0.158,-0.1557,-0.1575,-0.1561,-0.154,-0.1538,-0.1534,-0.1531,-0.1522,-0.1519,-0.1559,-0.1559,-0.1559,0,-0.1381,-0.1392,-0.1416,-0.142,-0.1428,-0.1456,-0.1456,-0.1467,-0.149,-0.1495,-0.1506,-0.1528,-0.1544,-0.1548,-0.1542,-0.1549,-0.1549,-0.1558,-0.1533,-0.153,-0.1528,-0.1519,-0.1516,-0.1557,-0.1557,-0.1558,-0.1558,0,-0.1364,-0.1371,-0.1369,-0.1389,-0.1397,-0.1399,-0.1423,-0.1428,-0.1443,-0.1459,-0.1464,-0.1484,-0.1499,-0.1501,-0.1517,-0.1507,-0.1513,-0.1527,-0.1546,-0.1521,-0.1514,-0.1511,-0.1554,-0.1555,-0.1556,-0.1556,0,0,-0.132,-0.1352,-0.1351,-0.1359,-0.1383,-0.1388,-0.1391,-0.1405,-0.1408,-0.1423,-0.1426,-0.1439,-0.1453,-0.1463,-0.148,-0.1478,-0.1458,-0.1493,-0.1494,-0.1485,-0.1447,-0.1435,-0.1431,-0.1469,-0.1469,-0.1469,-0.1445,0,-0.1299,-0.1305,-0.1326,-0.1326,-0.1332,-0.1357,-0.1359,-0.1373,-0.1388,-0.1395,-0.1411,-0.142,-0.1437,-0.1443,-0.1443,-0.146,-0.145,-0.1463,-0.1472,-0.1472,-0.1465,-0.1427,-0.1415,-0.1392,-0.1442,-0.1442,-0.1441,0,-0.1276,-0.1287,-0.1287,-0.1308,-0.1311,-0.1313,-0.1326,-0.1333,-0.1349,-0.136,-0.1369,-0.1388,-0.1392,-0.1409,-0.1414,-0.1422,-0.1427,-0.1435,-0.1435,-0.1437,-0.1455,-0.1427,-0.1385,-0.1381,-0.1437,-0.1438,-0.1438,0,-0.1242,-0.1257,-0.1259,-0.1266,-0.1291,-0.1291,-0.1302,-0.1319,-0.1325,-0.1337,-0.1341,-0.1353,-0.136,-0.1369,-0.139,-0.14,-0.1392,-0.1411,-0.14,-0.14,-0.1398,-0.1397,-0.1355,-0.1402,-0.1402,-0.1402,-0.1402,0,-0.1216,-0.1214,-0.1244,-0.1245,-0.1244,-0.1267,-0.1266,-0.1279,-0.1293,-0.1297,-0.132,-0.1323,-0.135,-0.1356,-0.1373,-0.1374,-0.1377,-0.1385,-0.139,-0.1383,-0.1382,-0.1386,-0.1388,-0.1401,-0.1401,-0.1401,-0.1402,0,-0.1178,-0.1198,-0.1201,-0.1224,-0.1229,-0.1227,-0.1247,-0.1249,-0.1264,-0.1268,-0.127,-0.1294,-0.1302,-0.1324,-0.1338,-0.1349,-0.1345,-0.1353,-0.1339,-0.1341,-0.1329,-0.133,-0.1288,-0.1283,-0.1333,-0.1333,-0.1332,0,-0.116,-0.1159,-0.1181,-0.1185,-0.1194,-0.12,-0.1206,-0.1229,-0.1234,-0.1251,-0.125,-0.126,-0.1269,-0.128,-0.1299,-0.1309,-0.1318,-0.1302,-0.132,-0.1312,-0.1316,-0.1316,-0.1315,-0.1299,-0.1298,-0.1297,-0.1297,0,-0.1125,-0.1134,-0.1142,-0.1152,-0.1158,-0.1167,-0.1178,-0.118,-0.1205,-0.121,-0.1218,-0.1224,-0.1238,-0.1247,-0.1259,-0.1271,-0.1287,-0.1291,-0.1289,-0.1282,-0.1273,-0.1277,-0.1328,-0.1292,-0.1293,-0.1293,-0.1293,-0.1293,-0.1096,-0.1096,-0.1111,-0.1118,-0.1128,-0.1137,-0.1139,-0.1153,-0.116,-0.1172,-0.1185,-0.1191,-0.1206,-0.1225,-0.1234,-0.1239,-0.1248,-0.1245,-0.1245,-0.1243,-0.124,-0.1272,-0.1242,-0.1242,-0.1242,-0.1242,-0.1242,0,-0.1061,-0.1071,-0.1078,-0.1091,-0.1096,-0.1111,-0.1123,-0.1126,-0.1131,-0.1143,-0.1151,-0.1159,-0.1167,-0.1185,-0.1195,-0.1195,-0.1203,-0.1197,-0.1197,-0.1199,-0.1232,-0.1232,-0.119,-0.119,-0.119,-0.119,-0.119,-0.119,-0.1044,-0.1043,-0.1054,-0.1059,-0.107,-0.1075,-0.108,-0.1088,-0.1098,-0.1105,-0.1112,-0.1124,-0.1138,-0.1149,-0.1156,-0.1162,-0.1164,-0.1155,-0.1162,-0.1192,-0.1197,-0.1202,-0.1202,-0.1155,-0.1155,-0.1129,-0.1129,-0.1129]}]]